Время (UTC), дата Ветер
(°,м/с) 
Видим.   Явления Облачность Т
(°С)
Тd
(°С)
f(%) Тe
(°С)
Pmin
(гПа)
dP
(гПа)
Po
(мм)
O2
(г/м3)
Тmin Tmax R s Состояние
почвы
00 01.04.12 180 (Ю) >10 км  {снег}  10/0 средняя 
[Ac As]
-8.6 -12.9 71 -10  1016.5  0.4  755  315  -13.4    0.0  равномерный
мокрый или
старый снег
100% 
03 01.04.12 250 (З) >10 км  {ливн. осадки}  9/9 300 м кучево-дожд. 
[Cb cap]
-5.6 -12.7 57 -8  1016  -0.3  755  312           
06 01.04.12 250 (З) >10 км  {ливн. осадки}  9/9 600 м кучево-дожд., верхняя 
[Cb cap|Ci fib]
-3.8 -11.9 53 -7  1014.5  -1.4  753  309           
12 01.04.12 290 (З) 3{10}  >10 км  {ливн. осадки}  ясно 
-7.5 -14 60 -10  1017  1.7  755  314    -2.3  0.0     
15 01.04.12 290 (З) >10 км    ясно 
-9.7 -14.4 69 -11  1017.8  0.6  756  317           
18 01.04.12 340 (С) >10 км    ясно 
-11.3 -15.7 70 -13  1017.5  -0.3  755  319           
21 01.04.12 360 (С) >10 км    ясно 
-13.8 -16.5 80 -16  1018.1  0.4  756  322           
00 02.04.12 320 (СЗ) >10 км    ясно 
-6 -15.1 49 -7  1018.2  0.5  756  313  -14      равномерный
мокрый или
старый снег
100% 
03 02.04.12 290 (З) >10 км    4/4 1000 м 
[Cu med, cong]
-2.9 -15.6 37 -6  1017.3  -0.9  755  309           
06 02.04.12 320 (СЗ) 4{11}  >10 км    8/5 1000 м верхняя 
[Cu hum|Cc]
-0.8 -14.9 34 -3  1014.5  -2.5  754  306           
12 02.04.12 270 (З) 3{11}  >10 км    ясно 
-4.5 -14.9 44 -7  1014.7  754  310    +0.5       
15 02.04.12 230 (ЮЗ) >10 км    ясно 
-9.4 -14 69 -9  1014.5  -0.4  753  316           
18 02.04.12 тихо ()   >10 км    ясно 
-10.5 -14.9 70 -11  1013.5  -1  753  317           
21 02.04.12 360 (С) >10 км    ясно 
-13.5 -16.2 80 -13  1012.4  -1.3  752  320           
00 03.04.12 050 (СВ) >10 км    ясно 
-5.7 -12.9 57 -5  1011.3  -0.7  751  310  -13.8      равномерный
мокрый или
старый снег
100% 
03 03.04.12 270 (З) >10 км    ясно 
+1.5 -9.5 44 +2  1008.3  -2.8  749  301           
06 03.04.12 180 (Ю) >10 км    3/1 1000 м средняя 
[Cu hum|Ac cuf]
+2.2 -9.8 41 +2  1005.1  -3  747  299           
09 03.04.12 180 (Ю) >10 км    1/1 1000 м 
[Sc diur, vesp]
+1.5 -9 46 +1  1004.2  -1  746  300    +3.1       
12 03.04.12 тихо ()   >10 км    ясно 
-3.1 -10.8 55 -3  1004.3  -0.1  746  305    +3.1       
15 03.04.12 110 (В) >10 км    3/0 верхняя 
[Ci fib]
-4.1 -9.5 66 -4  1003.7  -0.6  745  306           
18 03.04.12 340 (С) >10 км    5/0 средняя, верхняя 
[Ac trans|Ci fib]
-7.5 -11.9 71 -7  1001.9  -1.8  744  309           
21 03.04.12 360 (С) >10 км    5/0 средняя, верхняя 
[Ac lent|Ci fib]
-9.3 -11.3 85 -11  1002  -0.1  744  311           
00 04.04.12 360 (С) >10 км    9/3 600 м кучево-дожд., средняя, верхняя 
[Cb cap|Ac trans|Ci fib]
-3.5 -7.9 71 -5  1001.1  -0.7  743  304  -10      мокрый или
старый снег
50-90% 
03 04.04.12 тихо ()   >10 км    8/4 600 м кучево-дожд., средняя, верхняя 
[Cb cap|Ac cast|Ci fib]
+1.1 -7.7 52 +1  1000.2  -0.7  743  299           
06 04.04.12 290 (З) >10 км    10/8 600 м кучево-дожд., средняя 
[Cb cap|Ac trans]
+1.2 -8 50 +1  1000.2  743  299           
09 04.04.12 360 (С) >10 км    8/4 600 м кучево-дожд., средняя, верхняя 
[Cb cap|Ac cast|Ci fib]
-0.8 -6.2 67 -3  1000.9  0.7  743  301    +1.3       
12 04.04.12 180 (Ю) >10 км    10/8 600 м кучево-дожд., средняя 
[Cb cap|Ac und]
-2.9 -4.2 91 -4  1002.7  1.6  745  304    +1.3       
15 04.04.12 290 (З) 4000 м  слаб. снег  10/10 200 м 
[Frnb|Ns]
-3.5 -4.6 92 -3  1002.5  -0.2  745  304           
18 04.04.12 020 (С) 10 км  в посл. час снег  6/0 средняя, верхняя 
[Ac trans|Ci fib]
-6 -7.5 89 -6  1002.5  745  308           
21 04.04.12 тихо ()   >10 км    9/4 1000 м средняя, верхняя 
[Sc|Ac lent|Cc]
-8.9 -9.6 95 -9  1003.5  0.8  745  311           
00 05.04.12 тихо ()   >10 км  в посл. час ливневой снег  9/4 600 м кучево-дожд., средняя 
[Cb cap|Ac trans]
-5.3 -9.4 73 -5  1004.2  0.9  746  307  -9    0.0  мокрый или
старый снег
50-90% 
03 05.04.12 340 (С) >10 км    10/5 600 м кучево-дожд., средняя 
[Cb cap|Ac As]
-1.6 -14.1 38 -4  1003.2  -0.8  745  303           
06 05.04.12 110 (В) >10 км    10/3 600 м кучево-дожд., средняя 
[Cb cap|As trans]
+0.2 -14 34 -2  1003.2  745  301           
09 05.04.12 360 (С) >10 км    9/8 600 м кучево-дожд., средняя 
[Cb cap|Ac As]
-0.4 -14.7 33 -3  1005.2  1.9  747  303    +1.2       
12 05.04.12 тихо ()   >10 км    3/0 верхняя 
[Cs]
-3.9 -14.4 44 -4  1006.6  1.2  748  307    +1.2  0.0     
15 05.04.12 050 (СВ) >10 км    3/0 средняя, верхняя 
[Ac lent|Ci fib]
-5.4 -13 55 -7  1007.4  0.8  748  309           
18 05.04.12 360 (С) >10 км    ясно 
-8.3 -12 75 -8  1008.6  749  312           
21 05.04.12 290 (З) >10 км    3/0 средняя, верхняя 
[Ac lent|Ci fib]
-11.5 -13.5 85 -11  1009.1  0.5  749  316           
00 06.04.12 250 (З) >10 км    4/0 верхняя 
[Cs]
-3.9 -12.1 53 -3  1009.6  0.7  750  308  -11.6      мокрый или
старый снег
10-40% 
03 06.04.12 360 (С) >10 км    3/3 600 м кучево-дожд. 
[Cb cap]
-1.2 -12.7 41 -3  1009.4  750  305           
06 06.04.12 050 (СВ) >10 км    10/3 600 м кучево-дожд., средняя, верхняя 
[Cb cap|Ac cuf|Ci fib]
+0.9 -11.3 40 +2  1009.2  -0.2  750  302           
09 06.04.12 200 (Ю) >10 км    10/4 600 м кучево-дожд., средняя 
[Cb cap|Ac cuf]
+0 -11.5 42 -1  1009.7  0.5  750  303    +1.4       
12 06.04.12 250 (З) >10 км    3/0 средняя 
[Ac lent]
-3.3 -9.3 63 -4  1011.4  1.5  751  307    +1.4       
15 06.04.12 320 (СЗ) >10 км    3/0 средняя, верхняя 
[Ac lent|Ci fib]
-5.1 -9.6 71 -5  1011.4  751  309           
18 06.04.12 050 (СВ) >10 км    5/0 средняя, верхняя 
[Ac lent|Ci fib]
-4.9 -9.9 68 -6  1011.6  0.2  751  309           
21 06.04.12 360 (С) >10 км    8/0 средняя, верхняя 
[Ac lent|Cc]
-7 -10.8 74 -7  1013.1  1.5  752  312           
00 07.04.12 360 (С) >10 км    3/0 верхняя 
[Ci fib]
-2.3 -9.1 59 -2  1013  0.1  752  307  -7.1      мокрый или
старый снег
10-40% 
03 07.04.12 250 (З) >10 км    4/4 1000 м 
[Cu hum]
+2.9 -9.6 39 +4  1011.7  -1.1  752  301           
06 07.04.12 360 (С) >10 км    5/5 1000 м 
[Cu med, cong]
+5.5 -8.9 35 +4  1010.2  -1.5  751  297           
09 07.04.12 250 (З) >10 км    1/1 1000 м 
[Cu hum]
+5.3 -9.3 34 +6  1010.2  751  298    +7       
12 07.04.12 320 (СЗ) >10 км    ясно 
+0.6 -10.5 43 1011.2  0.8  751  303    +7       
15 07.04.12 250 (З) >10 км    ясно 
-3.5 -11 56 -3  1011.2  -0.2  751  308           
18 07.04.12 200 (Ю) >10 км    ясно 
-4.4 -10 65 -4  1011.2  751  309           
21 07.04.12 020 (С) 10 км    9/0 средняя, верхняя 
[Ac lent|Cc]
-5.7 -9.1 77 -5  1010  -1.2  750  310           
00 08.04.12 090 (В) >10 км    9/0 верхняя 
[Cc]
-0.9 -5.1 73 -2  1008.8  -1  749  303  -5.8      мокрый или
старый снег
10-40% 
03 08.04.12 140 (ЮВ) >10 км    10/0 средняя, верхняя 
[Ac trans|Ci fib]
+5 -6.4 43 +5  1006.3  -2.3  748  296           
06 08.04.12 200 (Ю) >10 км    10/0 средняя 
[Ac As]
+5.5 -5.6 45 +4  1005.1  -1.2  747  296           
12 08.04.12 140 (ЮВ) 4000 м  мгла  9/3 600 м кучево-дожд., средняя 
[Cb cap|Ac As]
+1.2 -3.3 72 +2  1006.9  1.6  748  300    +7.3       
15 08.04.12 020 (С) 4000 м  мгла  9/0 средняя 
[Ac As]
-1.6 -3.3 88 -1  1007.4  0.5  748  304           
18 08.04.12 050 (СВ) 4000 м  мгла  10/0 средняя 
[As trans]
-0.7 -2.2 90 1008.4  749  303           
21 08.04.12 020 (С) 4000 м  мгла  ясно 
-1.7 -3.1 90 -3  1009.4  750  304           
00 09.04.12 340 (С) 4000 м  мгла  ясно 
+2.6 -2.9 67 +2  1010.5  1.3  751  300  -2.5      мокрый или
старый снег
10-40% 
03 09.04.12 160 (Ю) 10 км    4/1 1000 м средняя, верхняя 
[Cu hum|Ac trans|Ci fib]
+8 -4.4 41 +8  1010.7  0.3  751  294           
06 09.04.12 140 (ЮВ) >10 км    10/1 600 м кучево-дожд., средняя, верхняя 
[Cb cap|Ac cuf|Ci fib]
+10.1 -4.5 35 +10  1010.2  -0.2  751  292           
09 09.04.12 290 (З) >10 км    9/3 600 м кучево-дожд., средняя, верхняя 
[Cb cap|Ac cuf|Ci fib]
+9.6 -4.1 38 +9  1011.2  751  293    +11       
12 09.04.12 230 (ЮЗ) >10 км    3/0 средняя 
[Ac lent]
+5 -4.8 49 +5  1013.1  1.8  753  298    +11       
15 09.04.12 200 (Ю) >10 км    4/0 средняя 
[Ac trans]
+0.2 -6.9 59 +1  1013.9  0.6  753  304           
18 09.04.12 070 (В) >10 км    10/0 средняя 
[Ac As]
-1.2 -5.9 70 -1  1013.9  753  305           
21 09.04.12 050 (СВ) 10 км    10/0 средняя 
[Ac As]
-1.1 -3.7 82 -1  1012.6  -1.3  752  305           
00 10.04.12 тихо ()   10 км    8/0 средняя, верхняя 
[Ac As|Cc]
+2.5 -2.4 70 +3  1010.6  -1.8  751  300  -2.9      мокрый или
старый снег
10-40% 
03 10.04.12 180 (Ю) 6-10  10 км    9/0 средняя, верхняя 
[Ac As|Cc]
+11.8 +1.1 48 +11  1005.6  -4.7  747  288           
06 10.04.12 180 (Ю) 5{10}  10 км    9/0 верхняя 
[Cc]
+12.1 +1.6 49 +11  1000.8  -4.7  744  287           
12 10.04.12 340 (С) 4{11}  4000 м  мгла  10/0 средняя 
[Ac As]
+6.6 +3.3 79 +5  997.2  -0.6  741  291    +12.9       
18 10.04.12 320 (СЗ) 4{11}  >10 км  {ливн. осадки}  6/0 средняя, верхняя 
[Ac trans|Cs]
+1.4 -4.5 65 -1  999.2  0.9  742  298           
21 10.04.12 270 (З) >10 км    3/0 средняя, верхняя 
[Ac trans|Cc]
-1.6 -7.6 64 -4  1000.2  743  302           
00 11.04.12 290 (З) 6{11}  >10 км    3/3 600 м кучево-дожд. 
[Cb cap]
+1.8 -7.6 50 -1  998.6  -1.6  742  298  -2    0.1     
06 11.04.12 290 (З) 9-14{14}  >10 км    8/8 600 м кучево-дожд. 
[Cb cap]
+4 -8.1 41 994.3  -1.7  739  294           
12 11.04.12 250 (З) >10 км    ясно 
-2.1 -7.5 66 -2  995  0.7  739  301    +5.3       
15 11.04.12 270 (З) >10 км    ясно 
-3.7 -7.7 74 -3  994.1  -1  738  302           
18 11.04.12 290 (З) >10 км    ясно 
-5 -8.2 78 -5  993.5  -0.6  738  304           
21 11.04.12 200 (Ю) >10 км    4/0 средняя 
[Ac lent]
-5.3 -8.2 80 -5  994  0.5  738  304           
00 12.04.12 290 (З) >10 км    1/0 средняя 
[Ac lent]
+4 -5.9 48 +4  993.7  738  294  -6         
03 12.04.12 320 (СЗ) >10 км    1/1 1000 м 
[Cu hum]
+7.6 -6.4 36 +6  993.2  -0.3  738  290           
06 12.04.12 320 (СЗ) 5-11{12}  >10 км    9/8 600 м кучево-дожд., верхняя 
[Cb cap|Ci fib]
+8.6 -5.9 35 +7  993.7  0.5  738  289           
12 12.04.12 320 (СЗ) >10 км    3/0 средняя 
[Ac trans]
+3.1 -6 51 +4  998.8  742  296    +9.3       
15 12.04.12 270 (З) >10 км    ясно 
+1 -4.6 66 1001.2  2.2  744  299           
18 12.04.12 230 (ЮЗ) >10 км    ясно 
-2.7 -6.4 76 -2  1002.7  1.5  745  304           
21 12.04.12 230 (ЮЗ) >10 км    3/0 средняя, верхняя 
[Ac trans|Ci fib]
-4 -6.2 85 -4  1004.7  1.8  746  306           
00 13.04.12 230 (ЮЗ) >10 км    9/0 средняя 
[Ac lent]
+3.7 -4 57 +3  1005.5  1.1  747  297  -5         
03 13.04.12 180 (Ю) >10 км    10/5 1000 м средняя 
[Sc|Ac trans]
+7.6 -5.1 40 +6  1004.5  -0.9  746  293           
06 13.04.12 180 (Ю) 5{11}  >10 км    9/0 средняя 
[Ac As]
+7.8 -3.9 43 +6  1002.8  -1.6  745  292           
12 13.04.12 180 (Ю) 4{10}  >10 км    10/0 средняя 
[As trans]
+6.8 -2.1 53 +5  999.2  -1.6  742  292    +9.9       
15 13.04.12 160 (Ю) 10 км  слаб. дождь  10/10 600 м 
[Ns]
+4.7 -1.3 65 +4  998.6  -0.6  742  294           
18 13.04.12 320 (СЗ) 10 км  в посл. час дождь  6/0 средняя 
[Ac lent]
+2.2 +1.1 92 +2  1000.1  1.5  743  297           
21 13.04.12 320 (СЗ) >10 км    3/0 средняя 
[Ac lent]
+2 -3 70 +1  1004.7  4.5  746  299           
00 14.04.12 340 (С) >10 км    4/1 1000 м средняя 
[Cu hum|Ac trans]
+5.6 -5.5 45 +5  1007.3  2.6  748  296  +1.5       
06 14.04.12 320 (СЗ) 4{13}  >10 км    3/1 1000 м средняя, верхняя 
[Cu hum|Ac trans|Cc]
+1 -8 51 -1  1008.9  0.2  750  302           
15 14.04.12 050 (СВ) >10 км    10/0 верхняя 
[Cs]
+0.8 -4.9 66 +1  1010.8  0.3  751  302           
18 14.04.12 110 (В) >10 км    10/0 средняя 
[As trans]
+0.2 -6 63 +1  1010.4  -0.4  751  303           
21 14.04.12 070 (В) >10 км    10/0 средняя 
[As op]
+0.9 -5.5 62 1009.2  -1.2  750  302           
00 15.04.12 110 (В) >10 км    10/3 1000 м средняя 
[Sc|As op]
+2.6 -3.3 65 +3  1008.2  -0.8  749  299  -0.3         
03 15.04.12 050 (СВ) 4000 м  слаб. дождь  10/6 300 м средняя 
[As op]
+4.3 +1.8 84 +4  1007.2  -1  748  297           
06 15.04.12 270 (З) 4000 м  слаб. морось{дождь}  10/10 200 м 
+3.4 +2.7 95 +3  1007.8  0.6  749  298           
12 15.04.12 180 (Ю) 4000 м  дымка{дождь, морось}  ясно 
+1.9 +1.1 94 1008  0.9  750  300    +4.5     
18 15.04.12 290 (З) 4000 м  дымка  10/0 верхняя 
[Cs]
-1.5 -2.3 94 -2  1010.7  0.5  751  304           
21 15.04.12 250 (З) >10 км    9/0 средняя, верхняя 
[Ac lent|Cc]
-2.4 -4 89 -2  1010.9  0.2  751  306           
00 16.04.12 290 (З) >10 км    9/0 средняя, верхняя 
[Ac lent|Ci]
+2 -0.5 84 +3  1011.4  0.7  751  301  -2.4    0.0     
03 16.04.12 340 (С) >10 км    8/6 1000 м средняя 
[Cu med, cong|Ac lent]
+7.2 -4.5 43 +7  1011  -0.3  751  295           
06 16.04.12 340 (С) 3-10  >10 км    8/8 600 м кучево-дожд. 
[Cb cap]
+7.5 -6.6 36 +7  1010.4  -0.6  751  295           
12 16.04.12 290 (З) 1{11}  >10 км    ясно 
-0.8 -6.2 67 1012.4  1.3  752  305    +10.2       
15 16.04.12 230 (ЮЗ) >10 км    ясно 
-3.5 -6.3 81 -3  1012.6  752  308           
18 16.04.12 360 (С) >10 км    ясно 
-3 -6.8 75 -3  1012.6  752  307           
21 16.04.12 тихо ()   >10 км    3/0 верхняя 
[Cc]
-4.5 -6.1 89 -5  1012.6  752  309           
00 17.04.12 360 (С) >10 км    ясно 
+3.6 -4.5 55 +4  1012.9  0.7  753  300  -5.1         
03 17.04.12 270 (З) >10 км    3/1 1000 м верхняя 
[Cu hum|Cs]
+11.3 -4 34 +12  1011.8  -1  752  291           
06 17.04.12 250 (З) >10 км    3/1 1000 м средняя 
[Cu hum|Ac lent]
+12.6 -3.3 33 +12  1010.4  -1.2  751  290           
09 17.04.12 250 (З) >10 км    1/0 средняя 
[Ac lent]
+11.5 -4.5 32 +11  1010.3  -0.1  751  291    +13.4       
12 17.04.12 тихо ()   >10 км    ясно 
+4.6 -7.1 42 +5  1012.2  1.6  752  299    +13.4       
15 17.04.12 110 (В) >10 км    3/0 средняя 
[Ac trans]
+0.3 -4.4 71 +1  1013.5  1.1  753  304           
18 17.04.12 070 (В) >10 км    10/0 средняя 
[Ac As]
+0.9 -3.7 71 +2  1014.2  0.7  753  303           
21 17.04.12 090 (В) 4000 м  мгла  9/0 средняя 
[Ac As]
+0.4 -2.9 78 +1  1016  1.7  755  304           
00 18.04.12 050 (СВ) 4000 м  мгла  8/0 средняя 
[Ac trans]
+6.8 -0.2 61 +8  1017  1.2  756  297  +0.2         
03 18.04.12 230 (ЮЗ) 4000 м  мгла  ясно 
+13 +3.7 53 +13  1016.6  -0.1  755  290           
06 18.04.12 180 (Ю) 10 км    8/0 верхняя 
[Ci]
+16.4 +3.1 41 +16  1015.7  -0.9  755  286           
09 18.04.12 180 (Ю) 10 км    9/1 600 м кучево-дожд., средняя, верхняя 
[Cb cap|Ac trans|Ci]
+15.1 +2.6 43 +16  1016.2  0.5  755  288    +16.8       
12 18.04.12 140 (ЮВ) 10 км    3/0 средняя, верхняя 
[Ac lent|Ci fib]
+10.5 -1.1 44 +11  1018.7  2.3  757  294    +16.8       
15 18.04.12 090 (В) 10 км    1/0 средняя 
[Ac trans]
+6.9 +2 71 +8  1019.8  1.1  758  297           
18 18.04.12 050 (СВ) 10 км    ясно 
+2 -2 75 +3  1021  1.1  759  304           
21 18.04.12 090 (В) 10 км    ясно 
+0.7 -1.3 86 1022.6  1.4  760  305           
00 19.04.12 180 (Ю) >10 км    ясно 
+10.1 +0.6 52 +11  1023.1  0.8  760  295  -1.7         
03 19.04.12 140 (ЮВ) >10 км    ясно 
+15.2 +1.2 39 +15  1022  -0.9  760  290           
06 19.04.12 180 (Ю) >10 км    ясно 
+17.9 +3 37 +18  1020.6  -1.2  759  286           
09 19.04.12 180 (Ю) >10 км    ясно 
+17.2 +2.8 38 +18  1020.5  -0.1  759  287    +18.2       
12 19.04.12 230 (ЮЗ) >10 км    ясно 
+11.6 +1.5 50 +11  1021.9  759  293    +18.2       
15 19.04.12 тихо ()   >10 км    ясно 
+6.7 +1.5 69 +7  1022.9  0.9  760  299           
18 19.04.12 050 (СВ) >10 км    ясно 
+3.6 +0.4 80 +4  1023.8  0.9  761  302           
21 19.04.12 110 (В) 4000 м  дымка  9/0 средняя 
[Ac lent]
+2.8 +0.1 82 +4  1024.1  0.3  761  303           
00 20.04.12 110 (В) 4000 м  дымка  4/0 средняя 
[Ac lent]
+10.3 +2.9 60 +10  1024.9  0.8  761  295  -0.1         
03 20.04.12 180 (Ю) >10 км    4/0 средняя 
[Ac lent]
+14.6 -0.1 37 +14  1023.6  -1  761  291           
06 20.04.12 200 (Ю) 10 км    ясно 
+16.1 +1 36 +16  1022.2  -1.4  760  289           
09 20.04.12 180 (Ю) 4000 м  мгла  ясно 
+15.9 +1.4 37 +17  1021.2  -1  759  289    +17.1       
12 20.04.12 110 (В) 4000 м  мгла  ясно 
+7.8 +1.4 64 +9  1022.1  0.7  759  297    +17.1       
15 20.04.12 тихо ()   4000 м  мгла  10/0 средняя 
[As trans]
+6.1 +0.8 69 +6  1022.9  0.7  760  299           
18 20.04.12 110 (В) 4000 м  мгла  10/0 средняя 
[As trans]
+6.3 +1.9 73 +7  1022.9  760  299           
21 20.04.12 070 (В) 4000 м  мгла  10/0 средняя 
[Ac As]
+5.8 +1.3 73 +7  1022.9  760  300           
00 21.04.12 180 (Ю) 4000 м  дымка  10/0 средняя 
[As trans]
+10.1 +2.6 60 +10  1022.8  760  295  +4.9         
06 21.04.12 200 (Ю) 4000 м  мгла  10/0 средняя 
[As op]
+15.6 +5.1 50 +16  1018.6  -2.3  757  288           
12 21.04.12 110 (В) 4000 м  мгла  10/0 средняя, верхняя 
[Ac trans|Ci fib]
+12 +4 58 +12  1016.4  -0.6  755  291    +16.7       
15 21.04.12 160 (Ю) 4000 м  мгла  10/0 средняя 
[Ac As]
+10.6 +4.1 64 +11  1015.8  -0.8  755  292           
18 21.04.12 270 (З) 4000 м  мгла  10/0 средняя 
[Ac As]
+11.5 +4.7 63 +11  1015.1  -0.5  754  291           
21 21.04.12 180 (Ю) 4000 м  мгла  10/0 средняя 
[Ac As]
+8.5 +0.5 57 +9  1015  -0.3  754  295           
00 22.04.12 230 (ЮЗ) 4000 м  в посл. час дождь  10/3 600 м средняя 
[Frnb|As op]
+10 +2.5 60 +11  1015.8  0.8  755  293  +7.9         
03 22.04.12 180 (Ю) 4000 м  мгла{дождь}  10/3 1000 м средняя 
[Sc|As op]
+9.3 +3.3 66 +9  1014.7  -1.1  754  293           
06 22.04.12 140 (ЮВ) 4000 м  слаб. дождь  10/4 600 м средняя 
[Frnb|Ac As]
+7.8 +6.9 94 +8  1013.1  -1.5  753  294           
12 22.04.12 050 (СВ) 2000 м  дождь  10/10 100 м 
[Sc|Ns]
+6.5 +6.3 99 +6  1010.7  -0.6  751  295    +10.2     
15 22.04.12 110 (В) 2000 м  слаб. дождь  10/10 100 м 
[Frnb|Ns]
+6 +5.8 99 +7  1009.5  -1.3  750  295           
18 22.04.12 360 (С) 2000 м  слаб. дождь  10/10 200 м 
[Frnb|Ns]
+5.8 +5.8 100 +7  1007.9  -1.6  749  294           
21 22.04.12 360 (С) 2000 м  слаб. дождь  10/10 100 м 
[Frnb|Ns]
+5.8 +5.8 100 +7  1007.3  -0.6  748  294           
00 23.04.12 110 (В) 2000 м  слаб. дождь  10/10 300 м 
+8.5 +7.4 93 +9  1007.4  0.2  749  291         
03 23.04.12 050 (СВ) 4000 м  слаб. дождь  10/0 средняя 
[As op]
+9.3 +7.8 90 +10  1007.4  749  290           
06 23.04.12 340 (С) 4000 м  слаб. дождь  10/0 средняя 
[Ac As]
+10.8 +9.4 91 +12  1007.2  -0.2  748  288           
12 23.04.12 360 (С) 10 км  {дождь}  10/0 средняя 
[As trans]
+9.5 +8.1 91 +11  1008.2  1.2  749  290    +12     
15 23.04.12 290 (З) 10 км    10/0 средняя 
[Ac und]
+7.5 +6.9 96 +8  1009.2  750  293           
18 23.04.12 270 (З) 2000 м  дымка  ясно 
+4 +3.8 99 +5  1009.8  0.5  750  297           
21 23.04.12 тихо ()   1000 м  дымка  3/0 средняя 
[Ac trans]
+1.8 +1.5 98 +2  1011.5  1.7  752  301           
00 24.04.12 180 (Ю) 10 км  {туман}  ясно 
+11.1 +8.7 85 +12  1011  -0.4  751  289  +1.3         
03 24.04.12 230 (ЮЗ) >10 км    10/0 средняя 
[As trans]
+16 +7.6 57 +16  1009.7  -1.1  750  284           
06 24.04.12 250 (З) >10 км    10/8 600 м кучево-дожд., средняя 
[Cb calv|Ac cast]
+18.1 +9.4 57 +18  1009.2  -0.4  750  282           
09 24.04.12 230 (ЮЗ) >10 км    10/1 1000 м средняя, верхняя 
[Cu hum|Ac cuf|Cc]
+16.3 +8.9 62 +16  1007.9  -1.3  749  283    +18.3       
12 24.04.12 180 (Ю) >10 км    10/0 средняя, верхняя 
[Ac trans|Ci fib]
+12.7 +9.4 80 +13  1008.6  0.6  750  287    +18.4       
15 24.04.12 180 (Ю) >10 км    10/0 средняя 
[As op]
+12.2 +9.7 85 +14  1007.8  -0.8  749  287           
18 24.04.12 110 (В) >10 км    4/0 средняя 
[Ac trans]
+10 +8.1 88 +11  1007.4  -0.6  749  290           
21 24.04.12 050 (СВ) 10 км    10/0 средняя, верхняя 
[As op|Cc]
+7.2 +6.3 94 +8  1007  -0.4  748  293           
00 25.04.12 050 (СВ) 4000 м  дымка  10/0 средняя 
[Ac und]
+11.5 +8.3 81 +13  1006.9  0.1  748  288  +7.1         
03 25.04.12 180 (Ю) 10 км    10/0 средняя 
[Ac und]
+13.2 +8.4 73 +13  1005.3  -1.6  747  286           
06 25.04.12 180 (Ю) >10 км    10/0 средняя 
[Ac As]
+18 +8.8 55 +18  1002.8  -2.3  745  280           
09 25.04.12 230 (ЮЗ) 10 км    10/5 600 м средняя 
[Frnb|As op]
+16.8 +9.3 61 +17  1001.3  -1.5  744  281    +18.2       
12 25.04.12 200 (Ю) 1{10}  10 км    10/8 600 м средняя 
[Frnb|As op]
+14.9 +7.9 63 +16  1001.4  744  283    +18.2       
15 25.04.12 180 (Ю) 10 км  слаб. дождь  10/8 300 м средняя 
[Frnb|As op]
+12.5 +9.4 81 +14  1000.7  -0.7  744  285           
18 25.04.12 200 (Ю) 10 км  слаб. дождь  10/10 200 м 
[Frnb|Ns]
+10.6 +9.6 94 +11  1000.2  -0.7  743  287           
21 25.04.12 160 (Ю) 4000 м  дождь  10/10 300 м 
[Frnb|Ns]
+9 +8.6 97 +8  998.5  -1.7  742  288           
00 26.04.12 180 (Ю) 2000 м  дождь  10/10 300 м 
[Frnb|Ns]
+8.6 +8.4 99 +8  997.5  -1  741  288  +8.7       
03 26.04.12 180 (Ю) 4000 м  слаб. дождь  10/10 300 м 
[Frnb|Ns]
+9.6 +9 96 +9  995.5  -2  740  286           
06 26.04.12 180 (Ю) 2000 м  дождь  10/10 300 м 
[Frnb|Ns]
+9.7 +9.1 96 +9  993.2  -2.2  738  286           
12 26.04.12 320 (СЗ) 4000 м  слаб. дождь  10/10 300 м 
[Frnb|Ns]
+6.2 +5.3 94 +7  993.1  738  290    +10.4  22     
15 26.04.12 360 (С) 10 км  {дождь}  10/3 300 м средняя 
[St|Ac As]
+5.1 +3.4 89 +5  993.6  0.5  738  291           
18 26.04.12 270 (З) 10 км  {дождь}  1/1 1000 м 
[Sc]
+3.8 +0.1 77 +1  996.2  2.6  740  294           
21 26.04.12 250 (З) >10 км    8/3 1000 м средняя 
[Sc|Ac cast]
+1.8 +0.2 89 998.2  1.8  741  297           
00 27.04.12 230 (ЮЗ) >10 км    3/3 1000 м 
[Sc diur, vesp]
+6.5 +1.5 70 +5  1000.1  2.1  743  292  +0.6       
03 27.04.12 250 (З) >10 км    8/1 1000 м средняя, верхняя 
[Cu hum|Ac As|Cs]
+12.6 +1.7 47 +12  1000.1  0.3  743  286           
06 27.04.12 200 (Ю) >10 км    10/0 средняя 
[Ac As]
+14.8 +2.8 44 +14  1000.3  0.2  743  284           
12 27.04.12 140 (ЮВ) 3{11}  10 км  слаб. ливневой дождь  10/8 600 м кучево-дожд., средняя 
[Cb cap|Ac As]
+12.7 +3.6 54 +13  1001.7  0.9  744  286    +15.7  0.0     
15 27.04.12 140 (ЮВ) >10 км  {ливн. осадки}  10/0 средняя 
[Ac As]
+11 +4.3 63 +11  1002  0.1  745  288           
18 27.04.12 180 (Ю) >10 км  {ливн. осадки}  10/3 1000 м средняя 
[Sc|As trans]
+9.9 +3 62 +9  1000.8  -1.2  744  289           
21 27.04.12 250 (З) 4000 м  слаб. дождь  10/8 1000 м средняя 
[Sc|As op]
+8.3 +2.9 69 +8  1001.3  0.5  744  290           
00 28.04.12 140 (ЮВ) >10 км  в посл. час дождь  10/5 300 м средняя 
[Frnb|As op]
+7.3 +6.2 93 +8  1001.1  -0.2  744  291  +6.7    0.3     
03 28.04.12 200 (Ю) 2000 м  дымка  10/0 средняя 
[As op]
+9.8 +4.4 69 +9  1001.9  0.8  744  289           
06 28.04.12 230 (ЮЗ) 2{13}  2000 м  в посл. час ливневой дождь  10/5 600 м кучево-дожд., средняя 
[Cb cap|As trans]
+7.2 +5.2 87 +7  1002.5  0.6  745  292           
12 28.04.12 230 (ЮЗ) >10 км    9/4 1000 м средняя, верхняя 
[Sc|Ac lent|Ci fib]
+7.2 +2.2 70 +6  1004.2  1.4  746  293    +11.2     
15 28.04.12 250 (З) >10 км    6/0 средняя, верхняя 
[Ac lent|Ci fib]
+6 +1.5 73 +5  1004.5  0.1  746  294           
18 28.04.12 250 (З) >10 км    3/0 верхняя 
[Ci fib]
+4.9 -1 66 +3  1004.1  -0.3  746  295           
21 28.04.12 180 (Ю) >10 км    10/8 1000 м средняя 
[Sc|Ac trans]
+2.6 +0.5 86 +3  1005.8  1.6  747  298           
00 29.04.12 250 (З) >10 км    10/8 600 м кучево-дожд., средняя, верхняя 
[Cb cap|Ac trans|Ci fib]
+7.2 +1.8 68 +5  1006.2  0.5  748  293  +2.6         
06 29.04.12 250 (З) 5-11{13}  >10 км  {ливн. осадки}  10/8 600 м кучево-дожд., средняя 
[Cb cap|As trans]
+7.9 +1.8 65 +6  1007.7  0.9  749  293           
09 29.04.12 290 (З) 5-10{11}  >10 км  {ливн. осадки}  8/5 600 м кучево-дожд., средняя 
[Cb cap|Ac trans]
+10 -1.2 46 +9  1008.5  0.8  749  291    +11  0.3     
12 29.04.12 290 (З) 3{10}  >10 км  {ливн. осадки}  3/3 1000 м 
[Sc diur, vesp]
+6.4 -1 59 +5  1011.3  2.7  751  296    +11  0.3     
15 29.04.12 270 (З) >10 км    ясно 
+4.2 -1.3 67 +4  1012.3  752  299           
18 29.04.12 270 (З) >10 км    ясно 
+3 -2.1 69 +2  1013.4  1.1  753  300           
21 29.04.12 180 (Ю) >10 км    ясно 
+0.4 -1.6 86 +1  1014  0.4  753  303           
00 30.04.12 250 (З) >10 км    9/0 верхняя 
[Ci]
+9.4 +0.5 54 +10  1013.5  -0.2  753  293  -0.5         
03 30.04.12 180 (Ю) >10 км    10/5 600 м кучево-дожд., средняя 
[Cb cap|Ac As]
+13.2 -1.1 37 +13  1011.5  -1.8  752  289           
06 30.04.12 270 (З) >10 км    10/4 600 м кучево-дожд., средняя 
[Cb cap|Ac As]
+12.7 +2.1 48 +12  1009.8  -1.7  750  289           
09 30.04.12 230 (ЮЗ) >10 км    10/3 600 м кучево-дожд., средняя 
[Cb cap|Ac As]
+10.9 +3.1 59 +11  1008.6  -1.4  749  290    +15.3       
12 30.04.12 230 (ЮЗ) >10 км    10/1 1000 м средняя 
[Sc diur, vesp|Ac As]
+8 +4.1 76 +8  1008.7  0.1  749  293    +15.3       
15 30.04.12 200 (Ю) >10 км    10/0 средняя 
[Ac As]
+6.1 +2.7 79 +7  1008.3  -0.5  749  295           
18 30.04.12 200 (Ю) >10 км    6/0 средняя, верхняя 
[Ac trans|Ci fib]
+4 +1.7 85 +4  1008.7  0.4  749  297           
21 30.04.12 270 (З) >10 км  туман поземный  1/0 средняя 
[Ac lent]
+2.4 +1.9 96 +3  1009.4  0.7  750  299           
00 01.05.12 230 (ЮЗ) >10 км    1/0 средняя 
[Ac lent]
+10.5 +3.7 63 +12  1010  2.7  750  291  +1.9         
03 01.05.12 070 (В) >10 км    9/9 600 м кучево-дожд., верхняя 
[Cb cap|Ci fib]
+13.2 +0.3 41 +14  1009.7  -0.1  750  288           
06 01.05.12 250 (З) 10 км  слаб. ливневой дождь{гроза}  10/9 600 м кучево-дожд., средняя 
[Cb cap|As op]
+6.4 +5.5 94 +6  1011.9  1.9  752  295           
12 01.05.12 250 (З) >10 км  {ливн. осадки}  ясно 
+6 +3.9 86 +6  1014.2  1.9  754  296    +15.1     
15 01.05.12 200 (Ю) >10 км  местами туман поземный  ясно 
+3.4 +2.9 97 +4  1015.1  0.9  754  300           
18 01.05.12 250 (З) >10 км  местами туман поземный  ясно 
+0.1 -0.2 98 +1  1016  0.6  755  304           
21 01.05.12 360 (С) >10 км    ясно 
+2.1 +1 93 +1  1016.4  0.6  755  302           
00 02.05.12 110 (В) >10 км    9/0 верхняя 
[Ci]
+9.6 +3.9 68 +11  1017.1  0.8  756  294  -0.6         
03 02.05.12 200 (Ю) >10 км    10/1 1000 м верхняя 
[Cu hum|Cs]
+15.2 +3.7 46 +15  1015.4  -1.5  755  287           
06 02.05.12 200 (Ю) >10 км    10/0 средняя, верхняя 
[Ac lent|Cs]
+17.7 +2.7 37 +19  1013.1  -2.1  753  285           
09 02.05.12 160 (Ю) >10 км    10/0 средняя 
[Ac As]
+14.9 +1.1 39 +16  1011.5  -1.7  752  287    +18.2       
12 02.05.12 070 (В) >10 км    10/0 средняя 
[Ac As]
+10.7 +3.7 62 +12  1011.3  -0.4  751  291    +18.2       
15 02.05.12 тихо ()   >10 км    10/0 средняя 
[Ac As]
+9.5 +4.3 70 +10  1010.8  -0.5  751  292           
18 02.05.12 020 (С) 10 км  слаб. дождь  10/10 200 м 
[Frnb|Ns]
+7.8 +6 88 +8  1010.3  -0.5  751  293           
21 02.05.12 360 (С) >10 км  {дождь}  9/6 1000 м средняя 
[Sc|Ac trans]
+7.6 +6.7 94 +9  1009.8  -0.5  750  293           
00 03.05.12 090 (В) >10 км  {дождь}  3/3 1000 м 
[Cu hum]
+12.6 -6.1 27 +13  1009.6  750  290  +7.2       
03 03.05.12 180 (Ю) >10 км    1/1 1000 м 
[Cu hum]
+16.6 +7.4 55 +17  1008.6  -0.9  750  284           
06 03.05.12 180 (Ю) >10 км    3/1 1000 м верхняя 
[Cu hum|Cc]
+19.6 +9 50 +20  1005.7  -2.9  747  279           
09 03.05.12 180 (Ю) >10 км    1/1 1000 м 
[Cu hum]
+19.3 +9.1 52 +20  1003.9  -1.7  746  279    +20.1       
12 03.05.12 140 (ЮВ) >10 км  зарница  3/3 600 м кучево-дожд. 
[Cb cap]
+15.3 +9.7 69 +17  1003.8  -0.2  746  283    +20.1       
18 03.05.12 290 (З) >10 км  туман поземный{гроза, ливн. осадки}  ясно 
+7.4 +7.2 99 +8  1007  1.2  748  292           
21 03.05.12 020 (С) 0200 м  туман  ясно 
+6 +6 100 +7  1007.5  0.4  749  294           
00 04.05.12 020 (С) >10 км  {туман}  3/1 300 м средняя 
[St|Ac trans]
+11.1 +9.5 90 +12  1007.5  0.1  749  288  +4.7    13     
03 04.05.12 110 (В) >10 км    3/3 1000 м 
[Cu med, cong]
+16.1 +7.8 58 +17  1006.2  -1.1  748  283           
06 04.05.12 050 (СВ) >10 км    3/3 1000 м верхняя 
[Cu med, cong|Ci fib]
+19 +4.7 39 +20  1004.2  -1.9  746  280           
09 04.05.12 230 (ЮЗ) >10 км    8/4 1000 м средняя 
[Cu med, cong|Ac trans]
+19 +6.1 43 +21  1003.3  -0.8  746  280    +20.5       
12 04.05.12 340 (С) >10 км    10/6 600 м кучево-дожд., средняя 
[Cb cap|Ac und]
+16.5 +4.7 46 +17  1003.3  746  283    +20.5       
18 04.05.12 360 (С) 3{10}  10 км  слаб. дождь{ливн. осадки}  10/10 600 м 
[Ns]
+9.3 +8.5 95 +9  1002  -2.1  745  289           
21 04.05.12 360 (С) 2000 м  дождь  10/10 300 м 
[Frnb|Ns]
+9.4 +9.2 99 +9  1000.3  -1.7  743  288           
00 05.05.12 360 (С) 4000 м  слаб. дождь  10/10 300 м 
[Frnb|Ns]
+8.8 +8.6 99 +8  998.7  -1.6  742  288  +8.8    16     
06 05.05.12 360 (С) 4{10}  10 км  слаб. дождь  10/10 300 м 
[Frnb|Ns]
+9.9 +9.1 95 +9  995.8  -1.3  740  286           
12 05.05.12 360 (С) 4000 м  дождь  10/10 600 м 
[Ns]
+7.3 +6.9 97 +7  996.6  0.8  740  289    +10.6  22     
15 05.05.12 050 (СВ) 4000 м  дождь  10/10 600 м 
[Ns]
+6.8 +6.4 97 +7  996.3  -0.3  740  290           
Время (UTC), дата Ветер
(°,м/с) 
Видим.   Явления Облачность Т
(°С)
Тd
(°С)
f(%) Тe
(°С)
Pmin
(гПа)
dP
(гПа)
Po
(мм)
O2
(г/м3)
Тmin Tmax R s Состояние
почвы